User: anonymous   Login
Location: Newark
(19.5361°N, 155.5761°W)
Time: 01:08:07
(UTC+00:00)
Language:

TIGRISAT - Orbit

View from above orbital plane
View from above orbital plane
View from above satellite
View from above satellite

Ground track
Ground track

The orbit data is extracted from the following two-line orbital elements,

1 40043U 14033AK  20093.13838078 +.00000109 +00000-0 +23590-4 0  9997
2 40043 097.7204 313.0376 0058540 244.8268 114.6863 14.74356014310807
Epoch (UTC): 02 April 2020 03:19:16
Eccentricity: 0.0058540
inclination: 97.7204°
perigee height: 606 km
apogee height: 688 km
right ascension of ascending node: 313.0376°
argument of perigee: 244.8268°
revolutions per day: 14.74356014
mean anomaly at epoch: 114.6863°
orbit number at epoch: 31080

The dashed part of the orbit path shows where the satellite is in the earth's shadow,  

DLR